Home   Weather   Riyadh   Past weeks

Flag for Saudi Arabia Past Weather in Riyadh, Saudi Arabia — Yesterday and Last 2 Weeks

Now
72 °F

Clear.


Feels Like: 77 °F
Forecast: 54 / 73 °F
Wind: 2 mph from Northwest

Location: King Khaled International Airport

Current Time: Dec 6, 2016 at 7:12:03 pm

Latest Report: Dec 6, 2016 at 6:00 pm


Visibility: 10 mi

Pressure: 30.07 "Hg (28.08 "Hg at 590m altitude)

Humidity: 44%

Dew Point: 48 °F

Location of RiyadhLocation

Past Weather in Riyadh — Graph

°F

Riyadh Temperature Yesterday

Maximum temperature yesterday: 81 °F (at 2:00 pm)
Minimum temperature yesterday: 52 °F (at 5:00 am)
Average temperature yesterday: 65 °F

High & Low Weather Summary for the Past Weeks

 TemperatureHumidityPressure
High88 °F (Dec 2, 3:00 pm)100% (Nov 27, 8:00 am)30.36 "Hg (Nov 27, 8:00 am)
Low50 °F (Nov 23, 6:00 am)9% (Nov 22, 3:00 pm)29.95 "Hg (Nov 23, 4:00 pm)
Average64 °F60%30.13 "Hg
* Reported Nov 21 6:00 pm — Dec 6 6:00 pm, Riyadh, Weather by CustomWeather, © 2016

Note: Actual official high and low records may vary slightly from our data, if they occured in-between our weather recording intervals... More about our weather records

Advertising

Riyadh Weather History for the Previous 24 Hours

Scroll right to see more
 ConditionsComfort  
Time TempWeatherWind HumidityBarometerVisibility
6:00 pm
Tue, Dec 6
72 °FClear.2 mph44%30.07 "Hg10 mi
5:00 pm81 °FSunny.3 mph24%30.04 "Hg10 mi
4:00 pm84 °FSunny.6 mph22%30.04 "Hg10 mi
3:00 pm84 °FSunny.6 mph20%30.04 "Hg10 mi
2:00 pm84 °FSunny.7 mph22%30.04 "Hg10 mi
1:00 pm82 °FSunny.5 mph25%30.07 "Hg10 mi
12:00 pm81 °FSunny.6 mph26%30.09 "Hg10 mi
11:00 am75 °FSunny.3 mph36%30.12 "Hg10 mi
10:00 am75 °FSunny.No wind39%30.12 "Hg10 mi
9:00 am68 °FSunny.No wind49%30.12 "Hg10 mi
8:00 am61 °FSunny.No wind63%30.12 "Hg10 mi
7:00 am55 °FSunny.3 mph77%30.12 "Hg10 mi
6:00 am55 °FClear.3 mph77%30.09 "Hg10 mi
5:00 am55 °FClear.No wind72%30.09 "Hg10 mi
4:00 am55 °FClear.No wind77%30.09 "Hg10 mi
3:00 am57 °FClear.No wind67%30.09 "Hg10 mi
2:00 am57 °FClear.No wind72%30.12 "Hg10 mi
1:00 am59 °FClear.No wind68%30.12 "Hg10 mi
12:00 am61 °FClear.5 mph63%30.12 "Hg10 mi
11:00 pm
Mon, Dec 5
63 °FClear.5 mph59%30.12 "Hg10 mi
10:00 pm64 °FClear.3 mph52%30.15 "Hg10 mi
9:00 pm64 °FClear.5 mph52%30.15 "Hg10 mi
8:00 pm66 °FClear.3 mph49%30.15 "Hg10 mi
7:00 pm68 °FClear.3 mph43%30.15 "Hg10 mi
Weather by CustomWeather, © 2016

See weather overviewHow to use our weather pages